Location: Unspecified
(0.0000°N, 0.0000°E)
Time: 23:51:38
(UTC+00:00)

S-56A Canister/Altair - Pass Details

Date: 09 October 2020
Orbit: 633 x 2499 km, 38.9° (Epoch: 28 October)

Event Time Altitude Azimuth Distance (km) Brightness Sun altitude
Rises 09:03:20 0° 251° (WSW) 4,014 10.9 48.6°
Reaches altitude 10° 09:05:56 10° 258° (WSW) 3,276 10.5 49.3°
Maximum altitude 09:13:46 40° 325° (NW) 2,299 10.1 51.2°
Drops below altitude 10° 09:25:01 10° 30° (NNE) 4,667 11.8 53.9°
Sets 09:29:36 0° 37° (NE) 5,888 12.2 55.1°
